Content
SEND FEEDBACK

Daily
Averages
Monthly
Summary
United States of America

ELIZABETH, MINNESOTA


Home > North America > United States > Minnesota
Elevation: 1223 feet     Latitude: 46 16N     Longitude: 096 04W

WEATHER
 
SELECT A DAY
Number of Records: 465,732;   Date Range: 1/1/95 - 10/21/14
 
SHARE

PRINT THIS DATA

[ ← Previous Day ]
WEATHER ALMANAC - JULY 3, 2014
[ Next Day → ]
[ °C ]   °F
Weather ElementAverageHighLow
Temperature65.4 °F75.2 °F (5:54 pm)53.6 °F (3:54 am)
Dewpoint45.9 °F51.8 °F (3:54 am)37.4 °F (6:35 pm)
Humidity53.5 %94 % (3:54 am)27 % (6:35 pm)
Barometer30.14 in30.17 in (10:14 am)30.10 in (12:34 am)
Wind Speed1.5 mph5.8 mph (10:34 pm)
Weather ElementAverage
Visibility10 mi
Wind DirectionNE (42.1 °)

Weather ElementTotal
Precipitation---
Heating Degree Days0.6 (Base 65)
Growing Degree Days14.4 (Base 50)
Averaged from 70 records on July 3, 2014
WEATHER CONDITIONS BREAKOUT
WIND DIRECTION BREAKOUT
WEATHER BY HOUR - JULY 3, 2014
[ °C ]   °F
Local TimeTemperatureDewpointHumidityBarometerVisibilityWind DirectionWind SpeedGust SpeedPrecipitationEventsConditions
12:34 AM59.0 °F48.2 °F67 %30.10 in10.0 miCalmClear
12:54 AM59.0 °F48.2 °F67 %30.10 in10.0 miCalmClear
1:15 AM55.4 °F50.0 °F82 %30.11 in10.0 miNNE (20°)3.5 mphClear
1:34 AM57.2 °F50.0 °F77 %30.10 in10.0 miNE (40°)3.5 mphClear
1:54 AM55.4 °F48.2 °F77 %30.11 in10.0 miNE (50°)3.5 mphClear
2:15 AM57.2 °F48.2 °F72 %30.11 in10.0 miENE (60°)3.5 mphClear
2:34 AM57.2 °F50.0 °F77 %30.11 in10.0 miCalmClear
2:54 AM57.2 °F50.0 °F77 %30.11 in10.0 miCalmClear
3:15 AM55.4 °F48.2 °F77 %30.11 in10.0 miENE (60°)3.5 mphClear
3:34 AM55.4 °F48.2 °F77 %30.12 in10.0 miCalmClear
3:54 AM53.6 °F51.8 °F94 %30.12 in10.0 miCalmClear
4:15 AM53.6 °F51.8 °F94 %30.12 in10.0 miCalmClear
4:34 AM53.6 °F50.0 °F88 %30.12 in10.0 miCalmClear
4:54 AM53.6 °F51.8 °F94 %30.13 in10.0 miCalmClear
5:15 AM53.6 °F50.0 °F88 %30.13 in10.0 miCalmClear
5:34 AM53.6 °F51.8 °F94 %30.13 in10.0 miCalmClear
5:54 AM53.6 °F50.0 °F88 %30.14 in10.0 miCalmClear
6:15 AM53.6 °F48.2 °F82 %30.15 in10.0 miNE (50°)4.6 mphClear
6:34 AM55.4 °F48.2 °F77 %30.15 in10.0 miNE (50°)3.5 mphClear
6:54 AM55.4 °F48.2 °F77 %30.16 in10.0 miENE (60°)3.5 mphClear
7:14 AM57.2 °F48.2 °F72 %30.16 in10.0 miCalmClear
7:34 AM60.8 °F50.0 °F68 %30.16 in10.0 miCalmClear
7:54 AM60.8 °F51.8 °F72 %30.16 in10.0 miCalmClear
8:14 AM62.6 °F48.2 °F59 %30.16 in10.0 miCalmClear
8:54 AM64.4 °F51.8 °F64 %30.16 in10.0 miCalmClear
9:14 AM66.2 °F51.8 °F60 %30.16 in10.0 miCalmClear
9:34 AM66.2 °F50.0 °F56 %30.16 in10.0 miCalmClear
9:54 AM66.2 °F51.8 °F60 %30.16 in10.0 miCalmClear
10:14 AM66.2 °F48.2 °F52 %30.17 in10.0 miCalmClear
10:34 AM66.2 °F48.2 °F52 %30.16 in10.0 miCalmClear
10:54 AM68.0 °F48.2 °F49 %30.17 in10.0 miNW (310°)3.5 mphClear
11:14 AM69.8 °F44.6 °F40 %30.17 in10.0 miCalmClear
11:34 AM69.8 °F44.6 °F40 %30.17 in10.0 miCalmClear
11:54 AM69.8 °F44.6 °F40 %30.16 in10.0 miCalmMostly Cloudy
12:14 PM69.8 °F44.6 °F40 %30.16 in10.0 miCalmMostly Cloudy
12:34 PM69.8 °F42.8 °F38 %30.16 in10.0 miCalmMostly Cloudy
12:54 PM69.8 °F42.8 °F38 %30.16 in10.0 miCalmMostly Cloudy
1:14 PM71.6 °F46.4 °F41 %30.16 in10.0 miCalmScattered Clouds
1:34 PM71.6 °F42.8 °F35 %30.16 in10.0 miCalmScattered Clouds
1:54 PM69.8 °F42.8 °F38 %30.16 in10.0 miCalmMostly Cloudy
2:14 PM71.6 °F44.6 °F38 %30.15 in10.0 miNorth (360°)3.5 mphMostly Cloudy
2:34 PM69.8 °F42.8 °F38 %30.15 in10.0 miCalmScattered Clouds
2:54 PM69.8 °F44.6 °F40 %30.14 in10.0 miCalmClear
3:14 PM71.6 °F41.0 °F33 %30.14 in10.0 miCalmClear
3:34 PM73.4 °F42.8 °F33 %30.14 in10.0 miCalmClear
3:54 PM73.4 °F41.0 °F31 %30.13 in10.0 miCalmClear
4:14 PM73.4 °F39.2 °F29 %30.13 in10.0 miCalmScattered Clouds
4:34 PM73.4 °F39.2 °F29 %30.13 in10.0 miCalmScattered Clouds
4:54 PM73.4 °F39.2 °F29 %30.13 in10.0 miCalmScattered Clouds
5:14 PM73.4 °F41.0 °F31 %30.12 in10.0 miCalmScattered Clouds
5:35 PM73.4 °F39.2 °F29 %30.12 in10.0 miCalmMostly Cloudy
5:54 PM75.2 °F41.0 °F29 %30.12 in10.0 miSSE (150°)3.5 mphScattered Clouds
6:14 PM73.4 °F39.2 °F29 %30.11 in10.0 miCalmClear
6:35 PM73.4 °F37.4 °F27 %30.11 in10.0 miCalmClear
6:54 PM73.4 °F39.2 °F29 %30.11 in10.0 miCalmClear
7:14 PM73.4 °F39.2 °F29 %30.12 in10.0 miSE (130°)3.5 mphClear
7:34 PM73.4 °F39.2 °F29 %30.11 in10.0 miSE (140°)3.5 mphClear
7:54 PM73.4 °F41.0 °F31 %30.11 in10.0 miSSE (160°)3.5 mphLight Drizzle
8:14 PM73.4 °F42.8 °F33 %30.12 in10.0 miESE (110°)3.5 mphClear
8:34 PM71.6 °F42.8 °F35 %30.12 in10.0 miESE (120°)3.5 mphClear
8:54 PM71.6 °F42.8 °F35 %30.12 in10.0 miESE (110°)4.6 mphClear
9:14 PM69.8 °F44.6 °F40 %30.12 in10.0 miESE (110°)4.6 mphClear
9:34 PM69.8 °F44.6 °F40 %30.12 in10.0 miEast (100°)3.5 mphClear
9:54 PM69.8 °F46.4 °F43 %30.12 in10.0 miESE (110°)4.6 mphClear
10:14 PM66.2 °F46.4 °F49 %30.13 in10.0 miEast (100°)3.5 mphClear
10:34 PM66.2 °F48.2 °F52 %30.13 in10.0 miESE (110°)5.8 mphClear
10:54 PM66.2 °F48.2 °F52 %30.13 in10.0 miESE (110°)4.6 mphClear
11:14 PM64.4 °F48.2 °F56 %30.13 in10.0 miESE (110°)5.8 mphClear
11:34 PM64.4 °F46.4 °F52 %30.14 in10.0 miESE (110°)5.8 mphClear
11:54 PM64.4 °F48.2 °F56 %30.14 in10.0 miESE (110°)5.8 mphClear
Hourly data recorded from KFFM, located miles away from Elizabeth, Minnesota







STORIES FROM OUR PARTNERS